DELTA 1 DEB, 23309

Orbit data source: Space-Track

DELTA 1 DEB, 23309 is space debris in SSO originally from a launch on Thu, 12 Jun 1975 UTC launched from the Air Force Western Test Range (AFWTR). Debris objects in space refer to the collection of defunct objects orbiting the Earth. Examples of debris include non-operational satellites, rocket bodies, and fragments generated from explosions, collisions, or faulty payload assembly.

Loading next visibility...
Identifier
23309, 1975-052JY
Orbit
SSO
Country
Flag of USUS
Related business
Manufacturer
Unknown
Mission
Spacecraft
Bus & Motor
Unknown
Mass
Unknown
Launch date (UTC)
1975-06-12 (51 years ago)
Launch vehicle
Unknown
Launch site
Air Force Western Test Range (AFWTR)
Object type
Payload
Rocket body
Debris
Shape & HBR
Unknown shape, 0.1 m
Radar Cross Section
Small (<0.1 m²)

Expand to show TLE details & history
Last TLE update: 3 days ago

TLE from 3 days ago
0 DELTA 1 DEB
1 23309U 75052JY  25348.94135556  .00000215  00000-0  88330-3 0  9999
2 23309  99.7092 242.6600 0392017 126.9128   2.6971 12.72396169602522
Epoch: 2025-12-14T22:35Z
TLE epoch observation values (Epoch: 2025-12-14T22:35:33.120Z)
Latitude
49.29129°
Longitude
11.33498°
Altitude
1,076.323 km
Speed
7.461 km/s
True Right ascension
04h 56m 16s
True Declination
49° 07' 42"
Sunlit
Object was in full shadow at epoch
Visualization orbit readout
Latitude
Unknown
Longitude
Unknown
Altitude
Unknown
Speed
Unknown
Apparent Right ascension
Unknown
Apparent Declination
Unknown
Sunlit
N/A
Visualization observer readout
Local Sidereal Time
13:09:33
Azimuth
Unknown
Elevation
Unknown
Doppler factor
Unknown
Orbital elements
Apogee altitude
1,673.319 km
Perigee altitude
1,065.871 km
Semi-major axis
7,747.732 km
Eccentricity
0.0392
Inclination
99.7092°
RAAN
242.66°
Arg. of periapsis
126.9128°
True anomaly
2.91934°
Mean anomaly
2.6971°
Eccentric anomaly
2.8071°
Mean motion
3.18259 °/min
Orbital period
113.12 mins
BSTAR
0.0008833
Loading maneuver chart data...
Computing Atmospheric mass density...
Loading historical data...
Loading historical data...
Loading historical data...
Loading historical data...
Loading historical data...
Loading historical data...
Loading historical data...

Documentation

Showing up to 5 results
|